Regional Weather Roundup
Issued by NWS Upton, NY

Current Version | Previous Version | Graphics & Text | Print | Product List | Glossary Off
Versions: 1 2 3 4 5 6 7 8 9 10 11 12 13 14 15 16 17 18 19 20 21 22 23 24 25 26 27 28 29 30 31 32 33 34 35 36 37 38 39 40 41 42 43 44 45 46 47 48 49 50

000
ASUS41 KOKX 042104
RWROKX

REGIONAL WEATHER ROUNDUP
NATIONAL WEATHER SERVICE NEW YORK NY
500 PM EDT FRI SEP 04 2015

NOTE: "FAIR" INDICATES FEW OR NO CLOUDS BELOW 12,000 FEET WITH NO
SIGNIFICANT WEATHER AND/OR OBSTRUCTIONS TO VISIBILITY.

NYZ071-072-176-178-NJZ106-104-042200-
NEW YORK CITY METRO AREA


CITY           SKY/WX    TMP DP  RH WIND       PRES   REMARKS
CENTRAL PARK   FAIR      83  62  49 E10G20    30.14R
LAGUARDIA APRT FAIR      82  64  54 NE13      30.10S
KENNEDY INTL   FAIR      80  67  64 E14       30.12R
NEWARK/LIBERTY PTSUNNY   81  69  67 SE7       30.10S
BRNX BOT. GARD   N/A     81  63  54 N13       30.14R
TETERBORO      FAIR      82  63  52 NE10      30.10R
$$

NYZ177-179-078>081-042200-
LONG ISLAND NEW YORK

CITY           SKY/WX    TMP DP  RH WIND       PRES   REMARKS
FARMINGDALE    PTSUNNY   81  67  62 SE10      30.12R
ISLIP          FAIR      82  60  47 E14       30.10R
SHIRLEY        FAIR      81  61  50 VRB6      30.12S
WESTHAMPTON    FAIR      81  61  50 E8        30.13S
MONTAUK POINT    N/A     75  64  68 NE8       30.15R
$$

NYZ052-065-067-042200-
HUDSON VALLEY

CITY           SKY/WX    TMP DP  RH WIND       PRES   REMARKS
WHITE PLAINS   FAIR      80  64  58 SE13      30.13R
NEWBURGH       CLOUDY    81  68  65 SE7       30.14S
MONTGOMERY     PTSUNNY   81  68  64 E3        30.12S
POUGHKEEPSIE   FAIR      83  62  49 E6        30.11R
ALBANY         FAIR      83  63  50 SW6       30.12S
$$

NJZ001-105-106-008-010-013-015-019>022-104-042200-
NEW JERSEY

CITY           SKY/WX    TMP DP  RH WIND       PRES   REMARKS
NEWARK/LIBERTY PTSUNNY   81  69  67 SE7       30.10S
TETERBORO      FAIR      82  63  52 NE10      30.10R
CALDWELL       PTSUNNY   81  63  54 E13       30.11S
MORRISTOWN     PTSUNNY   84  68  58 NE5       30.11S
SOMERVILLE     FAIR      84  67  56 E8        30.08S
SUSSEX         CLOUDY    79  67  66 VRB7      30.12S
ANDOVER          N/A     80  67  64 CALM      30.12S
TRENTON        FAIR      82  67  60 E10       30.08R
MILLVILLE      FAIR      81  70  69 E14       30.06R
ATLANTIC CITY  PTSUNNY   78  70  76 E20G25    30.07R
WRIGHTSTOWN    PTSUNNY   77  70  78 NE13      30.07R
TOMS RIVER     CLOUDY    75  68  78 E9G17     30.10S
BELMAR         PTSUNNY   75  64  69 E12       30.11S
$$

PAZ047>061-062-071-042200-
EASTERN PENNSYLVANIA

CITY           SKY/WX    TMP DP  RH WIND       PRES   REMARKS
PHILADELPHIA   PTSUNNY   85  67  54 E16       30.07R
ALLENTOWN      FAIR      82  69  64 E8        30.08S
SCRANTON       FAIR      84  67  56 SE7G16    30.10R
$$

CTZ002-004>006-009-010-012-RIZ004-006-007-MAZ004-011-015-042200-
SOUTHERN NEW ENGLAND
 IN CT

CITY           SKY/WX    TMP DP  RH WIND       PRES   REMARKS
BRADLEY INTL   FAIR      81  58  45 NE10      30.13S
HARTFORD       FAIR      83  60  45 E6        30.12S
DANBURY        PTSUNNY   80  61  52 E8        30.14R
WTRBRY/OXFORD  MOSUNNY   81  61  50 E6        30.17R
BRIDGEPORT     FAIR      80  65  59 E13       30.12R
MERIDEN        CLOUDY    83  58  42 SE7       30.13R
NEW HAVEN      PTSUNNY   80  65  59 SE10      30.13R
CHESTER        NOT AVBL
GROTON         FAIR      80  61  52 NE10      30.13R
WILLIMANTIC    FAIR      80  59  48 N10       30.15R

 IN RI

CITY           SKY/WX    TMP DP  RH WIND       PRES   REMARKS
PROVIDENCE     FAIR      74  59  59 NE14      30.17R
BLOCK ISLAND   FAIR      72  64  78 E12G18    30.15R
WESTERLY       FAIR      78  59  51 NE13      30.14S

 IN MA

CITY           SKY/WX    TMP DP  RH WIND       PRES   REMARKS
BOSTON         FAIR      67  60  78 E13       30.21R
WORCESTER      FAIR      72  55  55 E9        30.20S
WESTFIELD      PTSUNNY   79  57  46 NE7       30.15S
PROVINCETOWN     N/A     70  61  73 NE10      30.19R
NANTUCKET      FAIR      70  63  78 NE18G25   30.15R
$$

ANZ330-335-338-340-345-350-353-355-042200-
COASTAL MARINE OBSERVATIONS


STATION/POSITION TIME  SKY/WX   TEMP    WIND        PRES    VSBY  WAVE
                                AIR SEA DIR/SP/G                  HT/PER
                 (UTC)          (F)     (DEG/KT/KT) (MB)    (MI)  (FT/S)
NY HARB ENTRANCE 1950            74 77   80/ 19/ 21 1018.7          4/ 5
4S FIRE IS       NOT AVBL
20S FIRE ISLAND  1950            73 75   60/ 19/ 23 1018.6          5/ 6
GREAT SOUTH BAY  2000            75 80  110/ 16/ 17   N/A
23SW MTP         2050            72 74   60/ 21/ 25 1019.3          5/ 6
HUDSON CANYON    NOT AVBL
KINGS POINT      2000            81 74   70/  5/ 10 1018.6
EXECUTION ROCKS  2000            79      90/ 12/ 16   N/A
CENTRAL LI SOUND NOT AVBL
EASTERN LI SOUND 2000            76 71   70/ 12/ 14   N/A
ROBBINS REEF     2000            78     130/  6/  7 1018.2
$$


>>>>>>>>>>>>>>>>>>>>>>>>>>>> KEY <<<<<<<<<<<<<<<<<<<<<<<<<<<
>                                                          <
>     SKY/WX - SKY CONDITION/PRESENT WEATHER               <
>     TMP    - TEMPERATURE IN FAHRENHEIT                   <
>     DP     - DEWPOINT IN FAHRENHEIT                      <
>     RH     - RELATIVE HUMIDITY IN PERCENT                <
>     WIND   - DIRECTION AND SPEED IN MPH                  <
>     PRES   - MEAN SEA LEVEL PRESSURE IN INCHES OF HG     <
>     WCI    - WIND CHILL INDEX                            <
>     VSB    - VISIBILITY IN MILES                         <
>     HX     - HEAT INDEX                                  <
>     TC     - TEMPERATURE IN CELSIUS                      <
>     VRB    - VARIABLE WIND DIRECTION                     <
>                                                          <
>>>>>>>>>>>>>>>>>>>>>>>>>>>> KEY <<<<<<<<<<<<<<<<<<<<<<<<<<<




USA.gov is the U.S. government's official web portal to all federal, state and local government web resources and services.